Regional Weather Roundup
Issued by NWS

Home | Current Version | Previous Version | Graphics & Text | Print | Product List | Glossary On
Versions: 1 2 3 4 5 6 7 8 9 10 11 12 13 14 15 16 17 18 19 20 21 22 23 24 25 26 27 28 29 30 31 32 33 34 35 36 37 38 39 40 41 42 43 44 45 46 47 48 49 50
000
ASUS43 KFSD 141710
RWRSD

WEATHER ROUNDUP FOR SOUTH DAKOTA
NATIONAL WEATHER SERVICE SIOUX FALLS SD
1200 PM CDT SUN SEP 14 2014

NOTE: "FAIR" INDICATES FEW OR NO CLOUDS BELOW 12,000 FEET WITH NO
SIGNIFICANT WEATHER AND/OR OBSTRUCTIONS TO VISIBILITY.


SDZ001>005-009-010-012>017-141800-
NORTHWEST AND NORTH CENTRAL SOUTH DAKOTA

CITY           SKY/WX    TMP DP  RH WIND       PRES   REMARKS
BUFFALO          N/A     54  36  50 SE8       30.11S
FAITH            N/A     51  39  63 NE6       30.18S
MOBRIDGE       CLOUDY    50  41  71 N6        30.17F
$$

SDZ012>016-024>037-041>051-057-063-072>074-141800-
SOUTHWEST AND SOUTH CENTRAL SOUTH DAKOTA

CITY           SKY/WX    TMP DP  RH WIND       PRES   REMARKS
RAPID CTY ARPT CLOUDY    49  36  61 S10       30.18S
PIERRE         CLOUDY    54  39  57 E5        30.18S
CUSTER         CLOUDY    43  34  70 E12       30.14F
ELLSWORTH AFB  CLOUDY    50  38  62 S9        30.17S
PHILIP         CLOUDY    51  39  63 E9        30.18F
PINE RIDGE     CLOUDY    55  41  59 E12       30.13F
WINNER         FAIR      57  39  51 E12       30.17F
$$

SDZ004>011-016>023-039-040-141800-
NORTHEAST SOUTH DAKOTA

CITY           SKY/WX    TMP DP  RH WIND       PRES   REMARKS
ABERDEEN       CLOUDY    52  42  69 VRB5      30.18S
WATERTOWN      CLOUDY    52  39  61 W9        30.16F
SISSETON         N/A     56  41  57 NW13G18   30.15R
$$

SDZ017-020-022-023-036>040-048>070-141800-
SOUTHEAST SOUTH DAKOTA

CITY           SKY/WX    TMP DP  RH WIND       PRES   REMARKS
SIOUX FALLS    PTSUNNY   62  43  49 CALM      30.18S
HURON          PTSUNNY   57  40  52 VRB5      30.18F
CHAMBERLAIN    CLOUDY    54  44  68 CALM      30.19S
MITCHELL       CLOUDY    59  42  53 CALM      30.19S
YANKTON        PTSUNNY   57  45  62 N5        30.19F
$$

ABBREVIATIONS USED IN REMARKS
   TC - TEMPERATURE IN CELSIUS
  WCI - WIND CHILL INDEX
   HX - HEAT INDEX
  VSB - VISIBILITY



USA.gov is the U.S. government's official web portal to all federal, state and local government web resources and services.